Regional Weather Roundup
Issued by NWS

Home | Current Version | Previous Version | Text Only | Print | Product List | Glossary On
Versions: 1 2 3 4 5 6 7 8 9 10 11 12 13 14 15 16 17 18 19 20 21 22 23 24 25 26 27 28 29 30 31 32 33 34 35 36 37 38 39 40 41 42 43 44 45 46 47 48 49 50
000
ASUS44 KLIX 051911
RWRLA
LOUISIANA WEATHER ROUNDUP
NATIONAL WEATHER SERVICE NEW ORLEANS LA
200 PM CDT THU MAY 05 2016

NOTE: "FAIR" INDICATES FEW OR NO CLOUDS BELOW 12,000 FEET WITH NO
      SIGNIFICANT WEATHER AND/OR OBSTRUCTIONS TO VISIBILITY.
      SKY/WX - SKY CONDITION AND SIGNIFICANT WEATHER.
      TMP - AIR TEMPERATURE.    DP   - DEWPOINT TEMPERATURE.
      RH  - RELATIVE HUMIDITY.  PRES - PRESSURE.
      HX  - HEAT INDEX.         WCI  - WIND CHILL INDEX.

*  THESE STATIONS ARE NOT NWS OR FAA STATIONS AND ARE NOT UNDER
   NWS QUALITY CONTROL.

LAZ040-048-061>063-065-066-069-052000-
SOUTHEAST LOUISIANA

CITY           SKY/WX    TMP DP  RH WIND       PRES   REMARKS
N.O. AUDUBON   NOT AVBL
N.O. INTL ARPT SUNNY     80  51  36 N8G17     29.92F
N.O. LAKEFRONT SUNNY     74  59  59 W9        29.92F
N.O. DOWNTOWN* FAIR      78  48  34 N14G20    29.93F
RESERVE*       FAIR      82  46  28 N12       29.92F
SLIDELL        SUNNY     78  50  37 NW5       29.90F
BATON ROUGE    SUNNY     79  47  32 VRB5      29.94F
BOOTHVILLE     SUNNY     76  59  55 VRB5      29.92F
BELLE CHASSE   SUNNY     78  49  35 N10       29.91F
BOGALUSA*      FAIR      78  42  27 NW7G17    29.93F
GALLIANO*      CLEAR     80  50  34 N8        29.92F
NEW ROADS*     FAIR      75  47  36 NW13      29.97S
GONZALES*      FAIR      78  45  31 N8        29.92F
HAMMOND*       SUNNY     79  43  27 N9        29.92F
HOUMA*         SUNNY     81  57  44 NW12      29.94
PORT FOURCHON* CLEAR     79  50  36 N12       29.93F

$$

LAZ041-044-053-054-052000-
SOUTHWEST LOUISIANA

CITY           SKY/WX    TMP DP  RH WIND       PRES   REMARKS
LAKE CHARLES   SUNNY     81  46  29 N15       29.97F
LAFAYETTE      SUNNY     80  46  30 NW15G21   29.96F
PATTERSON      NOT AVBL
SALT POINT       N/A     79  51  37 NW9       29.93F
NEW IBERIA     SUNNY     80  49  33 N12       29.96F
CHENAULT AIRPK NOT AVBL

$$

LAZ027-028-052000-
CENTRAL LOUISIANA

CITY           SKY/WX    TMP DP  RH WIND       PRES   REMARKS
FORT POLK      SUNNY     77  45  32 N10       29.99F
ALEXANDRIA INT SUNNY     79  45  29 NW14G20   29.97F
ALEXANDRIA     SUNNY     79  43  27 NW9G20    29.98F

$$

LAZ001-002-052000-
NORTHWEST LOUISIANA

CITY           SKY/WX    TMP DP  RH WIND       PRES   REMARKS
SHREVEPORT     SUNNY     76  45  33 N6        30.01F
BARKSDALE AFB  MOSUNNY   76  44  31 NW13      30.01F
DTN SHREVEPORT SUNNY     75  49  39 NW7       30.02F

$$

LAZ014-016-052000-
NORTHEAST LOUISIANA

CITY           SKY/WX    TMP DP  RH WIND       PRES   REMARKS
MONROE         SUNNY     76  47  35 N9G18     29.99F
TALLULAH       SUNNY     76  43  30 N18G25    29.98F

$$




USA.gov is the U.S. government's official web portal to all federal, state and local government web resources and services.